Location: Elvershausen
(51.7078°N, 10.0956°E)
Time: 13:54:53
(UTC+00:00)

Daily predictions for brighter satellites

Satellite Brightness Start Highest point End
(mag) Time Altitude Azimuth Time Altitude Azimuth Time Altitude Azimuth
Cosmos 968 Rocket 3.9 19:33:43 10° SSW 19:38:58 73° WNW 19:44:12 10° NNE
NOSS 3-3 (A) 4.4 19:34:30 10° S 19:39:48 38° ESE 19:45:47 10° NE
NOSS 3-3 (C) 4.4 19:34:37 10° S 19:39:55 38° ESE 19:45:53 10° NE
ATLAS 2AS CENTAUR R/B 3.7 19:33:52 10° NW 19:41:08 45° NNE 19:47:55 10° E
Intercosmos 24 3.6 19:38:47 10° S 19:42:24 76° E 19:46:06 10° NNE
Cosmos 1354 Rocket 4.1 19:37:59 10° S 19:43:05 55° ESE 19:48:13 10° NNE
Sich 1 3.4 19:38:59 10° NNW 19:43:18 69° W 19:47:39 10° S
S3M 4.1 19:38:45 10° S 19:45:08 87° E 19:51:30 10° N
USA 245 3.5 19:43:46 10° SE 19:45:38 23° ENE 19:47:32 10° NNE
SJ 16-02 3.1 19:43:25 10° SE 19:46:03 16° E 19:48:40 10° ENE
OBJECT-B 3.1 19:45:04 10° SSW 19:47:46 24° W 19:50:30 10° NW
USA 308 3.0 19:43:29 10° WNW 19:47:48 87° NNE 19:52:06 10° ESE
SPOT 1/Viking Rocket 3.8 19:43:46 10° SE 19:48:51 56° ENE 19:53:56 10° N
Meteor 1-26 Rocket 4.3 19:43:27 10° S 19:48:58 57° E 19:54:20 10° NNE
Cosmos 2315 Rocket 4.2 19:44:41 10° SSE 19:50:53 57° E 19:57:08 10° NNE
Cosmos 1500 3.5 19:48:39 10° N 19:52:18 47° ENE 19:55:56 10° SSE
USA 215 3.9 19:47:06 10° ENE 19:53:29 58° N 19:59:53 10° W
BREEZE M DEB (TANK) 2.3 19:51:32 10° W 19:57:20 60° SSW 19:59:40 10° ESE
Meteor 1-14 Rocket 4.4 19:52:13 10° N 19:58:08 69° ENE 20:03:51 10° SSE
Terra 3.2 19:54:27 10° ESE 19:58:24 26° ENE 20:02:21 10° N
Cosmos 2082 Rocket 2.9 19:53:15 10° NNW 19:58:37 43° NE 20:03:57 10° ESE
X-37B 2.7 20:00:46 10° WSW 20:02:45 15° SSW 20:04:42 10° SSE
CREW DRAGON DEMO-1 DEB 2.6 20:00:29 10° W 20:03:06 55° SSW 20:05:17 13° ESE
Cosmos 1151 Rocket 3.0 19:59:03 10° S 20:03:23 68° E 20:07:46 10° NNE
SPOT 3 Rocket 3.7 19:58:18 10° S 20:03:27 76° WSW 20:08:38 10° NNW
SPOT 5 3.8 19:59:19 10° SE 20:04:05 41° ENE 20:09:03 10° N
Cosmos 1437 Rocket 4.4 20:00:56 10° SW 20:04:37 38° WNW 20:08:23 10° N
COSMOS 2406 3.3 19:59:26 10° NNW 20:05:09 77° ENE 20:10:33 11° SE
ERBS 3.9 20:02:27 10° WNW 20:05:29 32° N 20:08:30 10° ENE
Cosmos 2084 3.7 20:03:56 10° SSW 20:07:54 45° SE 20:11:58 10° NE
Resurs 01 Rocket 2.2 20:03:45 10° S 20:08:08 59° WSW 20:12:33 10° NNW
Cosmos 1538 Rocket 4.1 20:08:35 10° NNW 20:13:59 72° ENE 20:18:45 13° SSE
Cosmos 1933 4.2 20:11:10 10° SSW 20:15:07 52° WNW 20:19:05 10° N
Cosmos 773 Rocket 4.4 20:12:04 10° NNW 20:17:20 65° WSW 20:22:33 10° S
MetOp-B 4.4 20:15:55 10° S 20:21:15 70° WSW 20:26:38 10° NNW
Cosmos 1271 Rocket 3.8 20:19:15 14° SE 20:21:55 29° E 20:25:24 10° NNE
Cosmos 2278 Rocket 2.5 20:20:52 10° S 20:26:14 47° ESE 20:31:38 10° NE
BREEZE-M DEB (TANK) 1.3 20:24:42 10° W 20:26:48 45° S 20:27:56 21° ESE
Spot 2 Rocket 3.5 20:22:06 12° SSE 20:26:51 85° ENE 20:31:56 10° NNW
USA 305 3.0 20:23:57 10° WNW 20:28:11 63° SSW 20:31:23 17° SE
Cosmos 1782 3.2 20:24:47 10° SSW 20:28:45 66° WNW 20:32:45 10° N
Cosmos 1680 Rocket 4.4 20:25:21 10° NNW 20:30:23 40° NE 20:34:33 14° ESE
Cosmos 1844 Rocket 4.1 20:25:28 10° WSW 20:30:45 43° NW 20:36:06 10° NNE
Cosmos 1242 Rocket 4.1 20:28:07 10° SW 20:31:27 36° WNW 20:34:45 10° N
Gbstr 26 Del rocket 4.3 20:25:15 10° W 20:33:08 89° N 20:39:48 10° E
Cosmos 1943 Rocket 4.1 20:32:27 11° ESE 20:33:48 12° E 20:35:35 10° ENE
Cosmos 1515 Rocket 3.6 20:29:43 10° S 20:34:05 65° E 20:38:27 10° NNE
ERS-1 Rocket 3.0 20:30:20 15° SSE 20:34:29 69° ENE 20:39:30 10° N
Cosmos 1869 Rocket 4.2 20:32:02 10° N 20:36:08 39° ENE 20:38:55 18° SE
CZ-4C R/B 3.3 20:29:47 10° NW 20:36:48 62° SW 20:43:47 15° SSE
Cosmos 1633 Rocket 4.3 20:34:22 10° NNW 20:38:28 39° W 20:42:34 10° SSW
Meteor 1-11 Rocket 4.0 20:37:25 10° N 20:43:23 65° ENE 20:47:53 18° SSE
deb Kosmos-1763 4.2 20:42:09 10° NNW 20:45:40 62° WSW 20:47:57 20° S
ATLAS 5 CENTAUR R/B 4.0 20:41:19 10° WNW 20:45:51 25° WSW 20:50:56 10° SSW
USA 306 3.2 20:43:18 10° WNW 20:47:26 51° SSW 20:49:58 22° SE
Cosmos 1818 4.5 20:43:28 10° NW 20:48:44 44° NE 20:53:34 12° ESE
Cosmos 1470 Rocket 4.4 20:46:28 10° NNW 20:50:49 49° W 20:55:01 11° SSW
Cosmos 1812 2.8 20:47:20 10° SSW 20:51:11 79° W 20:55:04 10° N
Cosmos 1328 Rocket 4.3 20:46:58 10° SSW 20:51:18 53° WNW 20:55:39 10° N
Cosmos 1777 Rocket 4.0 20:47:57 10° SSW 20:53:10 85° WNW 20:58:25 10° NNE
Cosmos 1340 Rocket 3.8 20:49:33 10° N 20:53:21 35° ENE 20:55:28 21° ESE
ARIANE 5 R/B 3.1 20:52:22 14° S 20:55:55 55° W 21:00:13 10° NNW
Cosmos 1666 3.0 20:54:14 10° NNW 20:57:56 62° W 21:00:28 19° S
CARTOSAT-1 4.1 20:56:42 15° S 21:00:08 54° W 21:04:23 10° NNW
Meteor 2-12 Rocket 4.4 20:54:51 10° N 21:00:58 79° ENE 21:05:21 20° SSE
Cosmos 1833 Rocket 3.5 20:57:25 10° NW 21:02:48 45° WSW 21:07:04 16° S
Cosmos 1933 Rocket 4.2 21:00:52 10° NNW 21:05:06 52° W 21:08:26 16° SSW
Cosmos 2154 Rocket 4.0 20:58:51 10° N 21:05:13 77° ENE 21:09:42 20° SSE
Cosmos 923 Rocket 4.0 21:01:33 10° NNW 21:06:51 87° ENE 21:10:12 23° SSE
BREEZE-M R/B 1.8 21:04:38 10° WSW 21:07:01 55° S 21:07:49 36° ESE
SL-24 DEB 4.2 21:05:35 23° SSE 21:08:22 69° E 21:12:59 10° N
Cosmos 1536 2.8 21:04:27 10° N 21:08:31 70° ENE 21:10:33 28° SSE
Cosmos 1898 Rocket 4.4 21:07:15 23° SE 21:09:33 32° ESE 21:14:16 10° NE
Meteor 1-10 Rocket 4.2 21:05:29 12° S 21:10:42 88° ESE 21:16:26 10° NNE
Cosmos 2184 Rocket 4.2 21:06:26 10° NNW 21:12:38 70° W 21:17:33 17° S
Cosmos 1743 3.4 21:09:12 10° N 21:12:54 42° ENE 21:14:28 28° SE
USA 307 3.6 21:10:01 10° WNW 21:13:59 38° SW 21:15:38 27° S
H-2A R/B 3.5 21:11:47 10° NNE 21:15:59 66° ESE 21:18:18 25° S
Cosmos 2074 Rocket 4.3 21:10:54 10° NNW 21:17:08 64° W 21:22:14 16° S
NOSS 3-4 (A) 4.1 21:12:14 10° NW 21:19:02 61° SW 21:24:06 22° SSE
NOSS 3-4 (C) 4.1 21:12:21 10° NW 21:19:09 62° SW 21:24:12 22° SSE
Cosmos 990 Rocket 4.3 21:20:01 24° SSE 21:22:52 48° ESE 21:27:55 10° NE
Cosmos 1975 4.5 21:19:57 10° NNE 21:23:09 22° ENE 21:24:44 18° E
SJ 16-02 1.5 21:19:37 10° SSW 21:24:02 73° WNW 21:28:31 10° NNE
Nadezhda 1 Rocket 4.0 21:19:51 18° S 21:24:44 80° E 21:30:59 10° NNE
Cosmos 2297 4.3 21:22:46 25° SSE 21:25:14 37° ESE 21:30:24 10° NE
Cosmos 1733 Rocket 3.7 21:21:51 10° N 21:26:00 43° ENE 21:27:49 28° SE
USA 308 3.9 21:23:40 10° WNW 21:27:31 32° SW 21:28:43 27° S
ATLAS 2AS CENTAUR R/B 2.8 21:25:15 10° NW 21:32:43 77° SW 21:37:04 25° SSE
Cosmos 1544 3.0 21:32:12 10° NNW 21:35:49 81° WSW 21:37:03 39° S
Terra 2.4 21:33:01 22° SSW 21:35:54 51° W 21:40:34 10° NNW
USA 215 3.7 21:29:41 10° E 21:36:08 64° NNE 21:42:35 10° WNW
Iridium 4 Rocket 4.5 21:30:58 11° SSW 21:36:23 52° W 21:42:11 10° N
ERBS 2.5 21:38:41 10° WNW 21:41:59 65° NNE 21:43:15 34° E
SPOT 5 4.2 21:38:33 16° SSW 21:42:11 37° W 21:47:05 10° NNW
Cosmos 2082 Rocket 3.0 21:37:28 10° NW 21:42:44 42° WSW 21:45:50 22° SSW
Cosmos 2112 Rocket 4.1 21:40:10 10° NNW 21:45:31 72° WSW 21:48:11 30° S
Cosmos 2181 Rocket 4.4 21:44:37 27° SSE 21:47:37 48° E 21:53:29 10° NNE
Cosmos 2228 Rocket 3.7 21:45:35 18° SSW 21:48:42 54° WNW 21:53:07 10° N
Cosmos 44 3.6 21:44:07 10° NW 21:49:33 70° SW 21:51:59 32° SSE
Cosmos 2366 rocket 4.2 21:46:32 10° N 21:52:39 61° ENE 21:55:56 28° SSE
Spot 4 4.0 21:55:19 33° SE 21:57:26 67° ENE 22:02:17 10° N
Cosmos 2084 Rocket 3.4 21:53:30 10° NW 21:57:45 76° SW 21:59:14 40° SSE
Cosmos 1271 Rocket 4.5 21:54:20 10° SW 21:57:50 31° WNW 22:01:28 10° N
Cosmos 2341 Rocket 4.1 21:54:09 10° NNW 22:00:35 83° W 22:04:08 29° S
BREEZE-M DEB (TANK) 2.7 21:55:53 10° W 22:02:04 78° N 22:03:26 26° E
Meteor 1-27 Rocket 4.2 21:58:45 16° SSW 22:03:24 61° WNW 22:09:18 10° N
Cosmos 1515 3.5 22:04:29 50° S 22:05:22 78° E 22:09:10 10° NNE
Cosmos 489 Rocket 4.4 22:03:50 10° NNW 22:10:07 90° ESE 22:13:17 32° SSE
Cosmos 2278 Rocket 3.5 22:05:08 10° WSW 22:10:26 40° NW 22:15:47 10° NNE
SL-24 R/B - RUBIN 2 4.4 22:06:08 10° NW 22:11:27 48° WSW 22:13:07 35° S
Cosmos 1937 Rocket 3.4 22:09:32 33° S 22:11:48 71° ESE 22:16:58 10° NNE
Cosmos 1862 Rocket 3.5 22:10:39 44° SSE 22:11:55 68° E 22:16:13 10° NNE
Cosmos 1680 Rocket 4.4 22:07:35 10° NW 22:12:31 39° WSW 22:14:52 26° SSW
Cosmos 2218 Rocket 4.0 22:08:46 10° N 22:15:06 87° E 22:18:16 32° S
Cosmos 1943 Rocket 2.2 22:13:55 32° S 22:16:26 64° ESE 22:21:59 10° NE
Cosmos 2369 Rocket 2.8 22:17:10 32° SE 22:18:41 38° ESE 22:23:53 10° NE
Gbstr 26 Del rocket 4.1 22:13:08 10° WNW 22:20:26 63° SSW 22:23:48 28° SE
Meteor 1-19 Rocket 4.1 22:19:24 35° S 22:21:41 75° E 22:27:06 10° NNE
Cosmos 1238 Rocket 3.9 22:16:21 10° NNW 22:22:36 68° W 22:25:13 32° SSW
Cosmos 1048 Rocket 4.5 22:17:47 10° NNW 22:23:03 55° ENE 22:25:39 28° SE
Gblst 52 Del rocket 4.5 22:18:45 10° WNW 22:25:43 68° SSW 22:29:37 24° SE
Meteor 2-9 Rocket 4.3 22:20:16 10° NNW 22:26:05 75° W 22:28:36 35° S
COBE Rocket 4.3 22:24:30 33° SE 22:26:38 58° ENE 22:31:42 10° N
Cosmos 858 Rocket 4.4 22:24:21 32° SSW 22:26:51 88° ESE 22:32:08 10° NNE
Cosmos 1340 Rocket 4.4 22:26:14 10° NW 22:29:39 26° W 22:31:03 21° WSW
Okean 1 3.5 22:29:36 42° SW 22:30:46 67° WNW 22:34:46 10° N
Okean 1-7 3.7 22:31:00 35° ESE 22:31:46 39° E 22:35:46 10° NNE
Cosmos 1818 3.9 22:27:08 10° NW 22:32:27 51° WSW 22:34:12 37° S
Cosmos 1656 Rocket 4.4 22:35:34 30° SE 22:36:47 34° ESE 22:41:42 10° NE
DNEPR-1 R/B 3.9 22:34:46 27° SSW 22:37:55 77° SE 22:42:46 10° NE
SL-8 Rocket 4.3 22:32:11 10° NNW 22:38:24 58° W 22:41:32 29° SSW
ALOS 2 2.5 22:41:06 48° S 22:42:17 84° WSW 22:46:43 10° NNW
Cosmos 1356 Rocket 4.2 22:42:09 10° N 22:46:16 44° ENE 22:47:36 33° ESE
Meteor 2-4 Rocket 3.7 22:47:04 37° S 22:49:24 76° E 22:55:01 10° NNE
Cosmos 1898 Rocket 4.4 22:47:28 16° SW 22:51:28 48° WNW 22:56:39 10° NNE
SL-27 R/B 2.7 22:50:18 10° NNW 22:53:34 55° ENE 22:53:51 52° E
SL-08 R/B 4.5 22:49:26 10° NNW 22:55:40 83° W 22:58:29 36° S
BREEZE-M DEB (TANK) 4.3 22:41:53 10° WNW 22:56:38 54° SW 22:58:40 36° SSE
COSMOS 2455 4.4 22:51:37 10° NNW 22:57:02 33° NNE 23:02:24 10° E
Cosmos 1975 3.6 22:56:02 10° NNW 22:59:46 39° W 23:00:28 36° WSW
Sich 1 Rocket 4.3 22:58:01 10° N 23:02:27 46° ENE 23:04:02 33° ESE
RESURS DK-1 2.3 22:58:33 10° NW 23:02:44 81° WSW 23:03:31 58° SSE
SJ 16-02 4.2 23:01:04 10° WNW 23:03:28 14° NW 23:05:52 10° N
Cosmos 2297 Rocket 4.3 23:01:29 10° NNW 23:06:01 24° NE 23:10:33 10° E
Cosmos 2150 Rocket 4.3 23:04:29 40° SSE 23:06:03 54° ESE 23:11:13 10° NNE
Cosmos 1833 4.2 23:01:12 10° NNW 23:06:59 81° WSW 23:09:23 37° SSE
SeaSat 1 3.3 23:03:10 10° NE 23:07:38 34° ESE 23:08:32 31° SE
NOSS 2-1 (E) 4.5 23:03:20 10° NW 23:07:51 60° NE 23:14:09 10° ESE
Cosmos 1461 3.1 23:07:22 39° SW 23:09:08 89° NW 23:13:46 10° NE
Cosmos 2297 4.5 23:04:37 14° WSW 23:09:17 49° NW 23:14:49 10° NNE
Cosmos 372 Rocket 4.0 23:07:02 33° SW 23:09:18 71° WNW 23:14:25 10° NNE
Cosmos 2242 Rocket 3.5 23:09:01 49° SSW 23:10:11 82° W 23:14:41 10° N
Meteor 1-12 Rocket 4.3 23:04:19 10° NNW 23:10:17 85° E 23:12:43 37° SSE
Cosmos 2239 Rocket 4.5 23:04:18 10° N 23:10:39 83° E 23:13:35 35° SSE
ISS -2.1 23:18:16 25° E 23:18:16 25° E 23:19:53 10° E
Cosmos 494 Rocket 3.9 23:13:10 10° NNW 23:18:23 78° WSW 23:20:07 43° S
Cosmos 1908 Rocket 4.4 23:14:26 10° NNW 23:18:39 40° W 23:19:43 34° SW
USA 215 3.2 23:13:56 17° SE 23:19:08 73° SSW 23:25:42 10° WNW
Cosmos 1300 Rocket 3.9 23:15:58 10° N 23:20:22 59° ENE 23:21:41 40° SE
MTI 4.2 23:19:03 10° N 23:21:54 50° WNW 23:21:54 50° WNW
Okean 2 Rocket 3.6 23:18:10 10° N 23:22:28 50° ENE 23:23:56 35° SE
ATLAS 2AS CENTAUR R/B 4.1 23:17:27 10° WNW 23:22:29 21° WSW 23:24:29 18° SW
Nimbus 7 Rocket 4.3 23:18:03 10° NNE 23:23:57 88° WNW 23:26:37 35° SSW
Cosmos 1867 3.5 23:25:56 40° SSW 23:27:52 69° SE 23:33:20 10° NE
Cosmos 1125 Rocket 3.6 23:26:49 42° S 23:28:27 65° ESE 23:33:38 10° NNE
Cosmos 44 Rocket 3.4 23:23:30 10° NW 23:28:47 87° NE 23:31:23 30° SE
SAR-Lupe-2 4.3 23:28:50 10° N 23:32:16 43° WNW 23:32:57 38° WSW
Cosmos 1378 3.0 23:34:53 67° SW 23:35:19 79° W 23:39:04 10° N
ATLAS CENTAUR R/B 1.3 23:38:30 53° SE 23:38:30 53° SE 23:42:12 10° NE
Cosmos 1821 Rocket 4.3 23:32:24 10° NNW 23:38:39 56° W 23:41:25 32° SSW
Cosmos 2344 4.3 23:29:55 10° NW 23:38:56 75° SW 23:51:07 11° SSE
Cosmos 1934 Rocket 3.9 23:33:11 10° N 23:39:23 89° WSW 23:42:10 35° S
Cosmos 1726 4.2 23:38:37 10° NNE 23:41:34 22° ENE 23:43:27 15° ESE
USA 281 3.7 23:36:59 11° SE 23:43:06 58° NE 23:49:33 10° NNW
USA 81 4.2 23:42:57 10° N 23:48:15 68° E 23:50:37 33° SSE
Okean 3 3.6 23:50:46 45° SW 23:51:51 63° WNW 23:56:04 10° N
Meteor 1-15 Rocket 4.2 23:47:46 10° NNW 23:53:26 73° W 23:55:50 36° S
Lacrosse 5 3.0 23:54:51 26° SE 23:55:18 27° SE 23:59:31 10° ENE
